Location: Écuvilly
(49.6505°N, 2.9206°E)
Time: 06:46:34
(UTC+00:00)

ATLAS 2AS CENTAUR R/B - Pass Details

Date: 17 November 2025
Orbit: 1047 x 1163 km, 63.7° (Epoch: 11 December)

Event Time Altitude Azimuth Distance (km) Brightness Sun altitude
Rises 20:06:03 0° 316° (NW) 3,843 6.3 -38.9°
Reaches altitude 10° 20:08:45 10° 313° (NW) 2,877 5.5 -39.3°
Enters shadow 20:13:01 39° 292° (WNW) 1,538 3.8 -40.0°
